Regional Weather Roundup
Issued by NWS

Home | Current Version | Previous Version | Graphics & Text | Print | Product List | Glossary On
Versions: 1 2 3 4 5 6 7 8 9 10 11 12 13 14 15 16 17 18 19 20 21 22 23 24 25 26 27 28 29 30 31 32 33 34 35 36 37 38 39 40 41 42 43 44 45 46 47 48 49 50
000
ASUS45 KBOU 282107
RWRCO

WEATHER ROUNDUP FOR COLORADO
NATIONAL WEATHER SERVICE DENVER/BOULDER CO
300 PM MDT THU AUG 28 2014

NOTE: "FAIR" INDICATES FEW OR NO CLOUDS BELOW 12000 FEET WITH NO
SIGNIFICANT WEATHER AND/OR OBSTRUCTIONS TO VISIBILITY.

COZ001>005-013-030-031-282200-
...NORTHWEST COLORADO...

CITY           SKY/WX    TMP DP  RH WIND       PRES   REMARKS
CRAIG          SUNNY     68  47  46 VRB3      30.25F
HAYDEN         MOSUNNY   64  46  52 W7        30.26F
MEEKER         CLOUDY    67  50  54 CALM      30.27F
MOUNT WERNER   NOT AVBL
STEAMBOAT SPGS CLOUDY    61  49  64 SE7       30.28F
WALDEN         PTSUNNY   55  45  67 SW7       30.34F
$$

COZ006>008-011-282200-
...WEST CENTRAL VALLEYS...

CITY           SKY/WX    TMP DP  RH WIND       PRES   REMARKS
GRAND JUNCTION PTSUNNY   74  51  44 SE8       30.20F
MONTROSE       SUNNY     70  46  42 CALM      30.28F
EAGLE          MOSUNNY   64  46  52 SE3       30.29F
RIFLE          MOSUNNY   70  52  52 N5        30.22F
DELTA          MOSUNNY   73  51  45 S3        30.23F HAZE
NUCLA          PTSUNNY   70  46  43 SW3       30.29F
$$

COZ017>023-064>068-282200-
...SOUTHWEST COLORADO...

CITY           SKY/WX    TMP DP  RH WIND       PRES   REMARKS
DURANGO        MOSUNNY   75  37  25 NW17G25   30.21F
CORTEZ         MOSUNNY   76  45  33 N13G21    30.23F
PAGOSA SPRINGS PTSUNNY   68  35  28 W5        30.27F
TELLURIDE      MOSUNNY   57  41  54 N5        30.41F
WOLF CREEK PAS PTSUNNY   46  32  57 N7        30.53F
$$

COZ009-010-012-014-032>034-037-058>063-282200-
...CENTRAL COLORADO...

CITY           SKY/WX    TMP DP  RH WIND       PRES   REMARKS
ASPEN          MOSUNNY   60  45  57 CALM      30.34F
BUENA VISTA    PTSUNNY   64  35  33 NW28G33   30.28S
COPPER MTN     RAIN      39  36  87 W28G37    30.52F VSB<1/4
BERTHOUD PASS  HVY SNOW  32  30  93 N25G40    30.52R VSB<1/4 WCI  19
COTTONWOOD PAS PTSUNNY   59  36  41 W8G18     30.39F
GUNNISON       PTSUNNY   63  39  42 NW9       30.33F
KREMMLING      PTSUNNY   55  45  67 S6        30.34F
LEADVILLE      CLOUDY    49  37  63 N17G26    30.42S
MONARCH PASS   DRIZZLE   43  41  93 W26       30.61F
SALIDA         CLOUDY    61  46  59 W18G24    30.33R
SUNLIGHT       PTSUNNY   48  46  93 NW3       30.53S
WILKERSON PASS NOT AVBL
$$

COZ069>075-282200-
...SAN LUIS VALLEY/SANGRE DE CRISTO MOUNTAINS...

CITY           SKY/WX    TMP DP  RH WIND       PRES   REMARKS
ALAMOSA        MOSUNNY   68  38  33 CALM      30.25F
LA VETA PASS   NOT AVBL
SAGUACHE       NOT AVBL
$$

COZ035-036-038>040-282200-
...NORTHERN COLORADO FRONT RANGE...

CITY           SKY/WX    TMP DP  RH WIND       PRES   REMARKS
DENVER INTL AP CLOUDY    66  46  48 N24G30    30.16S
DMNS CITY PARK   N/A     62  49  62 NW14G29   30.19R
AURORA         PTSUNNY   63  49  61 N15       30.19S
FRONT RANGE AP PTSUNNY   66  50  55 N22       30.18R
ERIE MUNI ARPT LGT RAIN  59  54  84 W7        30.18R
BOULDER MUN AP CLOUDY    57  52  82 SW6       30.19F
CENTENNIAL     CLOUDY    62  51  67 N7        30.20R THUNDER
BROOMFIELD     HVY RAIN  59  54  82 NW17G32   30.20R
FORT COLLINS   CLOUDY    61  48  63 NW10      30.19S
LONGMONT       DRIZZLE   67  55  67 NW7       30.20S
$$

COZ041-046-047-076>085-087-088-282200-
...PIKES PEAK/PALMER DIVIDE AND SOUTHERN FOOTHILLS...

CITY           SKY/WX    TMP DP  RH WIND       PRES   REMARKS
COLO. SPRINGS  PTSUNNY   62  50  64 S7        30.18S THUNDER
A. F. ACADEMY  PTSUNNY   66  42  41 VRB7      30.18F
ELLICOTT       PTSUNNY   68  45  43 VRB6      30.15F THUNDER
FALCON         PTSUNNY   67  41  39 N6        30.22S
FORT CARSON    TSTM      66  48  52 N9G24     30.15S
LIMON          MOSUNNY   71  48  43 NW22G32   30.12F
MONUMENT HILL  CLOUDY    59  46  63 N22G28    30.24R
TRINIDAD       MOSUNNY   73  44  35 SE10      30.12F
$$

COZ042>045-048>051-090-091-282200-
...NORTHEAST COLORADO...

CITY           SKY/WX    TMP DP  RH WIND       PRES   REMARKS
GREELEY ARPT   CLOUDY    66  45  45 NW21G26   30.15R
AKRON          PTSUNNY   66  56  70 N13       30.08S
BURLINGTON     MOSUNNY   78  51  38 NW17      30.02F
WRAY             N/A     78  56  48 NW13G21   29.99S
STERLING       PTSUNNY   75  59  57 N20G26    30.04F
HOLYOKE        MOSUNNY   75  59  57 NW21G26   30.00S
FORT MORGAN    PTSUNNY   71  51  50 NW16G23   30.11R
$$

COZ086-089-092>099-282200-
...SOUTHEAST COLORADO...

CITY           SKY/WX    TMP DP  RH WIND       PRES   REMARKS
PUEBLO         MOSUNNY   79  42  26 NE3       30.06F
LA JUNTA       PTSUNNY   79  50  36 S5        30.03F
LAMAR          PTSUNNY   84  49  29 NE14G23   29.99F
SPRINGFIELD      N/A     79  46  31 N9G20     30.03F
$$


USA.gov is the U.S. government's official web portal to all federal, state and local government web resources and services.